Regional Weather Roundup
Issued by NWS Charleston, WV

Home | Current Version | Previous Version | Graphics & Text | Print | Product List | Glossary On
Versions: 1 2 3 4 5 6 7 8 9 10 11 12 13 14 15 16 17 18 19 20 21 22 23 24 25 26 27 28 29 30 31 32 33 34 35 36 37 38 39 40 41 42 43 44 45 46 47 48 49 50
254
ASUS41 KRLX 101810
RWRRLX
West Virginia Regional Weather Roundup
National Weather Service Charleston WV
100 PM EST SAT DEC 10 2016

Note: "fair" indicates few or no clouds below 12,000 feet with no
significant weather and/or obstructions to visibility.

WVZ003-101900-
Northern Panhandle of West Virginia

CITY           SKY/WX    TMP DP  RH WIND       PRES   REMARKS
WHEELING       LGT SNOW  24  14  65 W12G21    30.44F
$$

WVZ009-101900-
Northwest West Virginia

CITY           SKY/WX    TMP DP  RH WIND       PRES   REMARKS
PARKERSBURG    CLOUDY    27  13  55 W9        30.54F
$$

WVZ006-101900-
Western West Virginia

CITY           SKY/WX    TMP DP  RH WIND       PRES   REMARKS
HUNTINGTON     PTSUNNY   31  14  49 SE7       30.53F
$$

WVZ015-101900-
West Central West Virginia

CITY           SKY/WX    TMP DP  RH WIND       PRES   REMARKS
CHARLESTON     PTSUNNY   28  12  51 SW8       30.52F
$$

WVZ022-031-101900-
North Central West Virginia

CITY           SKY/WX    TMP DP  RH WIND       PRES   REMARKS
CLARKSBURG     CLOUDY    25  13  60 W8        30.47F
MORGANTOWN     CLOUDY    25  11  55 SW9G17    30.46F
$$

WVZ025-035-042-045-101900-
Southern West Virginia

CITY           SKY/WX    TMP DP  RH WIND       PRES   REMARKS
BECKLEY        MOSUNNY   26  10  50 NW7       30.39F
LOGAN          PTSUNNY   27  16  63 CALM      30.47F
BLUEFIELD      SUNNY     24  10  55 W8        30.38F
LEWISBURG      SUNNY     26  11  54 W5        30.38F
$$

WVZ047-101900-
Northern Mountains of West Virginia

CITY           SKY/WX    TMP DP  RH WIND       PRES   REMARKS
ELKINS         CLOUDY    23  12  62 SW8       30.42F
$$

WVZ052-101900-
Eastern Panhandle of West Virginia

CITY           SKY/WX    TMP DP  RH WIND       PRES   REMARKS
MARTINSBURG    CLOUDY    31  10  41 W13       30.45F
PETERSBURG     MOSUNNY   31  14  48 W10G16    30.46F
$$




USA.gov is the U.S. government's official web portal to all federal, state and local government web resources and services.